[[{"header":{"parameterUnit":"m.s-1","parameterCategory":1,"la1":30.2991,"la2":30.254,"lo1":-89.0895,"lo2":-89.0444,"dy":0.0017,"dx":0.0017,"nx":28,"ny":28,"refTime":"2024-03-29T03:00:00:Z","depth":0,"parameterNumber":2,"parameterNumberName":"U-component_of_WINDS"},"data":[0,0,0,0,0,0,0,0,0,0,0,0,0,0,0,0,0,0,0,0,0,0,0,0,0,0,0,0,0,0,0,0,0,0,0,0,0,0,0,0,0,0,0,0,0,0,0,0,0,0,0,0,0,0,0,0,0,0,-2.3087,-2.3088,0,-2.314,-2.314,-2.3141,-2.3053,-2.305,-2.3047,-2.3044,-2.3097,-2.3101,-2.3106,0,0,0,0,0,0,0,0,0,0,0,0,0,-2.291,-2.2914,-2.3087,-2.3088,-2.3088,-2.314,-2.314,-2.3141,-2.3053,-2.3049,-2.3046,-2.3042,-2.3096,-2.3101,-2.3106,0,0,0,0,0,0,0,0,0,0,0,0,0,-2.2978,-2.2915,-2.3087,-2.3051,-2.3048,-2.3139,-2.314,-2.3141,-2.3054,-2.3049,-2.3045,-2.3041,-2.3094,-2.31,-2.3107,-2.3236,0,0,-2.3126,-2.3129,0,0,0,0,0,0,0,0,-2.2974,-2.2984,-2.3055,-2.3053,-2.305,-2.3085,-2.3098,-2.3173,-2.3055,-2.3052,-2.3044,-2.3038,-2.3097,-2.3103,-2.3122,-2.3238,-2.3241,-2.3127,-2.3131,-2.3133,-2.3135,0,0,0,0,0,0,0,-2.2969,-2.2981,-2.3108,-2.3057,-2.3054,-2.3032,-2.3036,-2.3111,-2.3099,-2.3052,-2.3045,-2.3053,-2.3095,-2.3117,-2.3123,-2.3242,-2.3126,-2.3132,-2.3136,-2.3138,-2.3467,-2.3472,0,0,0,0,0,0,-2.2969,-2.2978,-2.3106,-2.3109,-2.3,-2.3039,-2.3044,-2.3078,-2.3098,-2.3096,-2.3057,-2.3048,-2.3108,-2.3116,-2.3125,-2.3278,-2.3133,-2.3139,-2.3143,-2.3463,-2.3468,-2.3474,0,0,0,0,0,0,-2.2966,-2.2981,-2.3104,-2.3042,-2.3056,-2.3046,-2.3086,-2.3082,-2.3104,-2.3102,-2.3099,-2.3081,-2.3105,-2.3116,-2.3209,-2.3279,-2.3142,-2.3148,-2.3457,-2.3464,-2.3471,-2.3586,0,0,0,0,0,0,-2.2961,-2.2981,-2.303,-2.3044,-2.306,-2.3188,-2.309,-2.3086,-2.3115,-2.3105,-2.3124,-2.3123,-2.3102,-2.32,-2.3216,-2.3285,-2.3153,-2.345,-2.346,-2.3469,-2.3576,-2.3597,-2.3614,0,0,0,0,0,-2.2955,-2.306,-2.3033,-2.3049,-2.3121,-2.3192,-2.3201,-2.3175,-2.3121,-2.317,-2.3169,-2.3122,-2.3269,-2.3211,-2.3227,-2.33,-2.3446,-2.3457,-2.3468,-2.3568,-2.3593,-2.3614,0,0,0,0,0,0,-2.3053,-2.3061,-2.3031,-2.3143,-2.3168,-2.3177,-2.3239,-2.3202,-2.3243,-2.3232,-2.3197,-2.3202,-2.3304,-2.331,-2.3246,-2.3426,-2.3348,-2.3363,-2.3418,-2.3442,-2.3461,-2.3457,-2.3158,0,0,0,0,0,-2.3088,-2.3146,-2.3149,-2.3248,-2.3262,-2.3249,-2.3279,-2.3256,-2.3281,-2.329,-2.3296,-2.3321,-2.3373,-2.3407,-2.3455,-2.3576,-2.358,-2.3634,-2.3653,-2.3669,-2.3683,-2.3749,-2.3774,-2.351,-2.351,-2.351,0,0,-2.3161,-2.3172,-2.321,-2.3268,-2.3284,-2.3345,-2.3258,-2.3325,-2.337,-2.33,-2.339,-2.3395,-2.342,-2.3529,-2.3577,-2.3538,-2.3756,-2.3683,-2.3696,-2.3701,-2.3763,-2.3788,-2.381,-2.3518,-2.3516,-2.3515,0,0,-2.3324,-2.3338,-2.3422,-2.3441,-2.3467,-2.3458,-2.3478,-2.3494,-2.3495,-2.3583,-2.3533,-2.3585,-2.3675,-2.3696,-2.3718,-2.389,-2.385,-2.3907,-2.4006,-2.4071,-2.4092,-2.411,-2.4173,-2.4196,-2.392,-2.392,-2.392,0,-2.3411,-2.3501,-2.347,-2.3542,-2.357,-2.351,-2.3595,-2.3615,-2.3655,-2.3676,-2.3631,-2.3743,-2.3756,-2.3869,-2.3911,-2.3931,-2.3954,-2.3905,-2.4091,-2.411,-2.4126,-2.4186,-2.4209,-2.3927,-2.3926,-2.3926,-2.3925,0,-2.3607,-2.367,-2.3735,-2.3776,-2.3811,-2.3889,-2.3871,-2.391,-2.3885,-2.388,-2.3972,-2.3985,-2.4035,-2.406,-2.4036,-2.4171,-2.4146,-2.4097,-2.4018,-2.4159,-2.4214,-2.4237,-2.3937,-2.3935,-2.3933,-2.3931,0,0,-2.3834,-2.3858,-2.3883,-2.3902,-2.3926,-2.3975,-2.405,-2.4099,-2.4134,-2.4164,-2.4227,-2.4304,-2.426,-2.4285,-2.4263,-2.432,-2.4457,-2.4264,-2.4264,-2.4301,-2.4608,-2.4646,-2.4672,-2.443,-2.4434,-2.4437,-2.4606,0,-2.3997,-2.4129,-2.4105,-2.4233,-2.4291,-2.4236,-2.4302,-2.4324,-2.4322,-2.4372,-2.4368,-2.4425,-2.4361,-2.4376,-2.443,-2.4429,-2.4519,-2.4416,-2.4489,-2.4492,-2.4486,-2.4701,-2.4741,-2.4899,-2.4628,-2.4631,-2.4634,0,-2.4206,-2.4245,-2.438,-2.4396,-2.442,-2.448,-2.4524,-2.4571,-2.4596,-2.459,-2.462,-2.4587,-2.4662,-2.4582,-2.4686,-2.4617,-2.4645,-2.465,-2.4655,-2.4662,-2.4573,-2.4715,-2.4949,-2.4974,-2.4667,-2.4665,-2.4662,0,-2.436,-2.4446,-2.4538,-2.4555,-2.4577,-2.4621,-2.4632,-2.4652,-2.4683,-2.4721,-2.4741,-2.4787,-2.4813,-2.4849,-2.483,-2.4773,-2.4939,-2.4856,-2.4937,-2.4938,-2.4975,-2.4973,-2.5219,-2.4991,-2.4991,-2.499,-2.499,0,-2.4546,-2.4631,-2.4607,-2.4664,-2.4758,-2.4729,-2.4822,-2.4826,-2.4845,-2.4902,-2.4856,-2.491,-2.488,-2.4932,-2.4918,-2.5007,-2.5019,-2.5017,-2.5012,-2.5022,-2.5022,-2.504,-2.5029,-2.4997,-2.4995,-2.4994,-2.4993,0,-2.4734,-2.4722,-2.4819,-2.4832,-2.4837,-2.4906,-2.4916,-2.497,-2.4964,-2.5036,-2.5052,-2.5043,-2.5102,-2.5086,-2.515,-2.514,-2.5254,-2.5234,-2.5246,-2.5241,-2.5324,-2.5317,-2.559,-2.5625,-2.5375,-2.5377,-2.5379,0,-2.4855,-2.4919,-2.4939,-2.4974,-2.4989,-2.5046,-2.5078,-2.5052,-2.5087,-2.5121,-2.517,-2.5225,-2.5268,-2.5365,-2.5364,-2.5413,-2.5395,-2.5487,-2.5402,-2.541,-2.5398,-2.5395,-2.5402,-2.5505,-2.5508,-2.551,-2.5512,0,-2.507,-2.5061,-2.5109,-2.5156,-2.5196,-2.5231,-2.5262,-2.5293,-2.527,-2.5312,-2.5372,-2.5405,-2.5471,-2.5526,-2.5571,-2.5582,-2.5544,-2.5539,-2.556,-2.5572,-2.5576,-2.5576,-2.5294,-2.5533,-2.5531,-2.5529,-2.5528,-2.5527,-2.5228,-2.5283,-2.5307,-2.5363,-2.5383,-2.5414,-2.5465,-2.5466,-2.5516,-2.5568,-2.5549,-2.5619,-2.5642,-2.5698,-2.5715,-2.5769,-2.5734,-2.5765,-2.5773,-2.5781,-2.5792,-2.5567,-2.5777,-2.5776,-2.5776,-2.5775,-2.5775,0,-2.5442,-2.5455,-2.5506,-2.5552,-2.5596,-2.5556,-2.5589,-2.5629,-2.569,-2.5716,-2.5759,-2.5829,-2.5883,-2.5887,-2.5937,-2.5979,-2.5963,-2.5994,-2.5991,-2.5994,-2.582,-2.5797,-2.6006,-2.6006,-2.6006,-2.6006,-2.6006,-2.6006,-2.5559,-2.5651,-2.5645,-2.5746,-2.5757,-2.5826,-2.5848,-2.5876,-2.5896,-2.5977,-2.6021,-2.6024,-2.6041,-2.6092,-2.614,-2.614,-2.6161,-2.6199,-2.6192,-2.6029,-2.6006,-2.5984,-2.5963,-2.6203,-2.6203,-2.6362,-2.6363,-2.6364]},{"header":{"parameterUnit":"m.s-1","parameterCategory":1,"la1":30.2991,"la2":30.254,"lo1":-89.0895,"lo2":-89.0444,"dy":0.0017,"dx":0.0017,"nx":28,"ny":28,"refTime":"2024-03-29T03:00:00:Z","depth":0,"parameterNumber":3,"parameterNumberName":"V-component_of_WINDS"},"data":[0,0,0,0,0,0,0,0,0,0,0,0,0,0,0,0,0,0,0,0,0,0,0,0,0,0,0,0,0,0,0,0,0,0,0,0,0,0,0,0,0,0,0,0,0,0,0,0,0,0,0,0,0,0,0,0,0,0,-1.9591,-1.9591,0,-1.963,-1.963,-1.9631,-1.9624,-1.9623,-1.9623,-1.9622,-1.966,-1.9661,-1.9663,0,0,0,0,0,0,0,0,0,0,0,0,0,-1.9509,-1.951,-1.9591,-1.9591,-1.9592,-1.963,-1.963,-1.9631,-1.9624,-1.9623,-1.9623,-1.9622,-1.9659,-1.9661,-1.9663,0,0,0,0,0,0,0,0,0,0,0,0,0,-1.9545,-1.9511,-1.9591,-1.9593,-1.9594,-1.963,-1.963,-1.9631,-1.9624,-1.9623,-1.9622,-1.9622,-1.9659,-1.9661,-1.9663,-1.9699,0,0,-1.9671,-1.9672,0,0,0,0,0,0,0,0,-1.9543,-1.9548,-1.9592,-1.9593,-1.9594,-1.9621,-1.9615,-1.9653,-1.9625,-1.9613,-1.9622,-1.9621,-1.9648,-1.9651,-1.966,-1.97,-1.9702,-1.9671,-1.9673,-1.9674,-1.9674,0,0,0,0,0,0,0,-1.9541,-1.9547,-1.9606,-1.9593,-1.9594,-1.9592,-1.9596,-1.9622,-1.9635,-1.9614,-1.9613,-1.9618,-1.9648,-1.9658,-1.9661,-1.9702,-1.9671,-1.9673,-1.9675,-1.9676,-1.9772,-1.9773,0,0,0,0,0,0,-1.9538,-1.9545,-1.9605,-1.9607,-1.9566,-1.9594,-1.9598,-1.9613,-1.9635,-1.9637,-1.9619,-1.9618,-1.9654,-1.9658,-1.9662,-1.9704,-1.9674,-1.9676,-1.9677,-1.9771,-1.9772,-1.9773,0,0,0,0,0,0,-1.9536,-1.9543,-1.9603,-1.9576,-1.9583,-1.9596,-1.9613,-1.9615,-1.9625,-1.9639,-1.9641,-1.9627,-1.9654,-1.9659,-1.9689,-1.9705,-1.9677,-1.9679,-1.9769,-1.9771,-1.9772,-1.9788,0,0,0,0,0,0,-1.9534,-1.9543,-1.9557,-1.9576,-1.9585,-1.9631,-1.9614,-1.9616,-1.9629,-1.9628,-1.9647,-1.9649,-1.9653,-1.9686,-1.9692,-1.9708,-1.9681,-1.9768,-1.977,-1.9772,-1.9786,-1.979,-1.9794,0,0,0,0,0,-1.9531,-1.956,-1.9558,-1.9565,-1.9603,-1.9632,-1.9636,-1.9641,-1.9631,-1.9644,-1.9653,-1.9649,-1.9703,-1.9689,-1.9696,-1.9713,-1.9767,-1.9769,-1.9772,-1.9785,-1.979,-1.9794,0,0,0,0,0,0,-1.9541,-1.9562,-1.956,-1.9596,-1.9612,-1.963,-1.9648,-1.9646,-1.9665,-1.9663,-1.9667,-1.9671,-1.9702,-1.971,-1.9695,-1.9747,-1.9733,-1.9737,-1.9741,-1.9745,-1.9749,-1.9746,-1.9683,0,0,0,0,0,-1.9548,-1.957,-1.9587,-1.9617,-1.9625,-1.9635,-1.9648,-1.965,-1.9666,-1.9673,-1.9684,-1.9699,-1.972,-1.9733,-1.9753,-1.9788,-1.9791,-1.9803,-1.9806,-1.9809,-1.9812,-1.983,-1.9836,-1.9781,-1.9781,-1.9781,0,0,-1.9562,-1.9576,-1.959,-1.962,-1.9632,-1.9654,-1.9641,-1.9665,-1.9681,-1.9676,-1.9706,-1.9714,-1.9732,-1.9764,-1.9779,-1.9772,-1.9828,-1.9812,-1.9814,-1.9816,-1.9833,-1.9839,-1.9843,-1.9783,-1.9782,-1.9782,0,0,-1.9598,-1.9611,-1.9637,-1.965,-1.9669,-1.9676,-1.9682,-1.97,-1.9706,-1.9736,-1.9732,-1.9751,-1.9786,-1.9798,-1.9809,-1.9849,-1.9845,-1.9855,-1.9874,-1.9891,-1.9896,-1.9899,-1.9913,-1.9918,-1.9858,-1.9858,-1.9858,0,-1.9612,-1.9646,-1.9651,-1.9675,-1.9688,-1.9685,-1.9711,-1.9723,-1.9747,-1.9756,-1.9748,-1.9791,-1.9803,-1.9838,-1.9847,-1.9856,-1.9863,-1.9853,-1.9895,-1.9899,-1.9902,-1.9915,-1.992,-1.9859,-1.9859,-1.9859,-1.9859,0,-1.9662,-1.9686,-1.9705,-1.9729,-1.9743,-1.9768,-1.9776,-1.979,-1.9791,-1.9798,-1.9827,-1.9841,-1.9862,-1.9871,-1.9872,-1.9906,-1.9901,-1.9894,-1.988,-1.9908,-1.992,-1.9925,-1.9861,-1.986,-1.986,-1.986,0,0,-1.9707,-1.9733,-1.974,-1.975,-1.9771,-1.9788,-1.9812,-1.9834,-1.9846,-1.9863,-1.9882,-1.9912,-1.9905,-1.9917,-1.9919,-1.9935,-1.9964,-1.9926,-1.9926,-1.9932,-2.0001,-2.0006,-2.0012,-1.9962,-1.9963,-1.9963,-2.0,0,-1.9745,-1.9788,-1.9793,-1.9832,-1.9853,-1.9849,-1.987,-1.9884,-1.9891,-1.9909,-1.9916,-1.9937,-1.9927,-1.9934,-1.9949,-1.9957,-1.9978,-1.9955,-1.9979,-1.998,-1.9975,-2.0018,-2.0024,-2.0058,-2.0005,-2.0005,-2.0006,0,-1.9795,-1.9813,-1.9854,-1.9871,-1.988,-1.9899,-1.9918,-1.9936,-1.9952,-1.9955,-1.9969,-1.9968,-1.9992,-1.9977,-2.0009,-1.9993,-2.0003,-2.0008,-2.0009,-2.0012,-1.9995,-2.0021,-2.0069,-2.0073,-2.0014,-2.0013,-2.0012,0,-1.9823,-1.9857,-1.9886,-1.9895,-1.9916,-1.9929,-1.9938,-1.9952,-1.9965,-1.9982,-1.999,-2.0009,-2.0019,-2.0034,-2.0038,-2.0027,-2.007,-2.0055,-2.0072,-2.0072,-2.0082,-2.0081,-2.0131,-2.0089,-2.0089,-2.0089,-2.0088,0,-1.9864,-1.9889,-1.9899,-1.9916,-1.9944,-1.9948,-1.9975,-1.9983,-1.9996,-2.0014,-2.0012,-2.0029,-2.0034,-2.0051,-2.0055,-2.008,-2.0085,-2.0088,-2.0089,-2.0088,-2.0088,-2.0095,-2.0092,-2.009,-2.009,-2.0089,-2.0089,0,-1.99,-1.9908,-1.9939,-1.9955,-1.996,-1.9979,-1.9993,-2.0009,-2.0015,-2.0038,-2.0044,-2.0053,-2.0074,-2.0079,-2.0104,-2.0106,-2.0136,-2.0134,-2.0131,-2.0131,-2.0148,-2.0146,-2.0204,-2.0211,-2.0164,-2.0165,-2.0165,0,-1.9926,-1.9945,-1.9964,-1.9976,-1.9986,-2.0006,-2.0018,-2.0023,-2.0036,-2.0054,-2.0068,-2.0088,-2.0105,-2.0138,-2.0146,-2.0164,-2.0163,-2.0182,-2.0166,-2.0164,-2.0163,-2.0161,-2.0163,-2.0185,-2.0185,-2.0186,-2.0186,0,-1.9971,-1.9974,-1.9993,-2.0012,-2.0028,-2.0043,-2.0058,-2.0068,-2.0074,-2.0089,-2.011,-2.0123,-2.0148,-2.0167,-2.0186,-2.0194,-2.0191,-2.0191,-2.0196,-2.0196,-2.0193,-2.0194,-2.0139,-2.019,-2.0189,-2.0189,-2.0189,-2.0189,-2.0003,-2.0019,-2.0035,-2.0055,-2.0067,-2.0081,-2.0097,-2.0105,-2.0122,-2.0143,-2.0144,-2.0167,-2.0181,-2.0205,-2.0214,-2.0231,-2.0226,-2.0233,-2.0235,-2.0236,-2.0237,-2.019,-2.0235,-2.0235,-2.0234,-2.0234,-2.0234,0,-2.0048,-2.0057,-2.0076,-2.0097,-2.0113,-2.0109,-2.0125,-2.0138,-2.0158,-2.0171,-2.0188,-2.0211,-2.023,-2.024,-2.0258,-2.027,-2.0269,-2.0274,-2.0273,-2.0275,-2.0242,-2.0236,-2.0275,-2.0275,-2.0275,-2.0275,-2.0275,-2.0275,-2.0073,-2.01,-2.0104,-2.0137,-2.0146,-2.0169,-2.0178,-2.019,-2.0201,-2.0227,-2.0243,-2.0249,-2.0261,-2.028,-2.0296,-2.0299,-2.0305,-2.0312,-2.0313,-2.0282,-2.0278,-2.0274,-2.0268,-2.0313,-2.0313,-2.0345,-2.0345,-2.0345]}]]